Radiation Dose at Monitoring Post of Fukushima Daini Nuclear Power Station
Date,Time,MP-1(microSv/h),MP-2(microSv/h),MP-3(microSv/h),MP-4(microSv/h),MP-5(microSv/h),MP-6(microSv/h),MP-7(microSv/h),Wind Direction,Wind Velocity(m/s),Rain
2017/09/29,00:00,0.332,0.206,0.338,0.315,0.310,0.166,0.099,north,4.2,No
2017/09/29,00:10,0.334,0.208,0.337,0.318,0.309,0.167,0.099,north,3.9,No
2017/09/29,00:20,0.333,0.207,0.338,0.317,0.311,0.166,0.099,north,3.9,No
2017/09/29,00:30,0.334,0.208,0.336,0.317,0.307,0.167,0.099,north-northwest,3.3,No
2017/09/29,00:40,0.331,0.208,0.339,0.317,0.311,0.167,0.099,north-northwest,3.5,No
2017/09/29,00:50,0.333,0.208,0.337,0.317,0.310,0.168,0.099,north-northwest,3.2,No
2017/09/29,01:00,0.333,0.206,0.337,0.318,0.309,0.167,0.099,north,3.7,No
2017/09/29,01:10,0.334,0.207,0.338,0.317,0.311,0.166,0.098,north-northwest,3.6,No
2017/09/29,01:20,0.335,0.206,0.338,0.316,0.310,0.166,0.099,north-northwest,3.8,No
2017/09/29,01:30,0.333,0.209,0.339,0.318,0.310,0.167,0.099,north-northwest,3.9,No
2017/09/29,01:40,0.335,0.207,0.336,0.316,0.309,0.167,0.099,north-northwest,5.0,No
2017/09/29,01:50,0.333,0.207,0.337,0.318,0.308,0.167,0.100,north-northwest,4.4,No
2017/09/29,02:00,0.334,0.208,0.338,0.318,0.310,0.167,0.098,north-northwest,5.0,No
2017/09/29,02:10,0.335,0.208,0.338,0.316,0.309,0.166,0.099,north-northwest,4.8,No
2017/09/29,02:20,0.333,0.208,0.339,0.319,0.309,0.168,0.098,north-northwest,5.2,No
2017/09/29,02:30,0.336,0.207,0.338,0.316,0.310,0.167,0.099,north-northwest,5.1,No
2017/09/29,02:40,0.335,0.207,0.337,0.317,0.309,0.167,0.099,north-northwest,5.4,No
2017/09/29,02:50,0.334,0.207,0.338,0.317,0.309,0.167,0.099,north,5.9,No
2017/09/29,03:00,0.334,0.207,0.337,0.317,0.309,0.168,0.099,north,6.1,No
2017/09/29,03:10,0.333,0.207,0.336,0.318,0.309,0.166,0.098,north-northwest,5.5,No
2017/09/29,03:20,0.334,0.208,0.339,0.316,0.309,0.167,0.099,north-northwest,4.8,No
2017/09/29,03:30,0.334,0.210,0.337,0.317,0.309,0.167,0.099,north-northwest,3.3,No
2017/09/29,03:40,0.334,0.207,0.339,0.317,0.309,0.167,0.099,northwest,2.8,No
2017/09/29,03:50,0.335,0.207,0.336,0.316,0.309,0.166,0.099,northwest,2.8,No
2017/09/29,04:00,0.334,0.208,0.338,0.318,0.308,0.167,0.100,west-northwest,2.2,No
2017/09/29,04:10,0.334,0.207,0.338,0.318,0.310,0.168,0.099,west-northwest,1.9,No
2017/09/29,04:20,0.335,0.208,0.337,0.317,0.309,0.168,0.099,north-northwest,2.1,No
2017/09/29,04:30,0.333,0.208,0.338,0.317,0.310,0.166,0.099,north-northwest,2.4,No
2017/09/29,04:40,0.334,0.206,0.338,0.319,0.309,0.166,0.099,north-northwest,2.2,No
2017/09/29,04:50,0.334,0.208,0.337,0.316,0.309,0.167,0.098,north-northwest,2.4,No
2017/09/29,05:00,0.333,0.207,0.338,0.317,0.310,0.167,0.099,north-northwest,2.9,No
2017/09/29,05:10,0.336,0.207,0.336,0.316,0.309,0.168,0.099,north,2.6,No
2017/09/29,05:20,0.333,0.207,0.337,0.317,0.310,0.166,0.099,north,2.4,No
2017/09/29,05:30,0.334,0.207,0.338,0.319,0.310,0.166,0.099,north-northwest,2.3,No
2017/09/29,05:40,0.334,0.208,0.336,0.317,0.308,0.167,0.099,north-northwest,2.2,No
2017/09/29,05:50,0.333,0.208,0.338,0.316,0.310,0.167,0.098,northwest,1.7,No
2017/09/29,06:00,0.334,0.208,0.339,0.319,0.309,0.167,0.099,west-northwest,1.4,No
2017/09/29,06:10,0.334,0.207,0.339,0.318,0.309,0.167,0.100,west-northwest,0.7,No
2017/09/29,06:20,0.333,0.208,0.338,0.317,0.310,0.167,0.099,west-northwest,0.7,No
2017/09/29,06:30,0.335,0.206,0.338,0.317,0.308,0.166,0.099,west-northwest,0.8,No
2017/09/29,06:40,0.334,0.207,0.336,0.316,0.310,0.168,0.098,north-northwest,0.5,No
2017/09/29,06:50,0.335,0.209,0.339,0.319,0.310,0.168,0.098,west,0.7,No
2017/09/29,07:00,0.334,0.207,0.337,0.315,0.309,0.167,0.099,-,CALM,No
2017/09/29,07:10,0.333,0.207,0.338,0.316,0.311,0.167,0.099,-,CALM,No
2017/09/29,07:20,0.334,0.208,0.338,0.315,0.307,0.167,0.099,-,CALM,No
2017/09/29,07:30,0.333,0.207,0.337,0.317,0.310,0.166,0.099,-,CALM,No
2017/09/29,07:40,0.333,0.206,0.340,0.314,0.308,0.167,0.099,south,0.9,No
2017/09/29,07:50,0.333,0.207,0.336,0.316,0.311,0.167,0.098,southeast,0.8,No
2017/09/29,08:00,0.332,0.206,0.338,0.315,0.306,0.166,0.097,south-southeast,1.6,No
2017/09/29,08:10,0.333,0.207,0.337,0.318,0.310,0.167,0.099,south,1.9,No
2017/09/29,08:20,0.334,0.207,0.337,0.315,0.308,0.167,0.099,south-southeast,2.3,No
2017/09/29,08:30,0.334,0.207,0.337,0.313,0.312,0.168,0.098,south,2.9,No
2017/09/29,08:40,0.333,0.207,0.337,0.316,0.308,0.167,0.097,south-southeast,3.5,No
2017/09/29,08:50,0.334,0.205,0.337,0.317,0.310,0.167,0.098,south,4.1,No
2017/09/29,09:00,0.333,0.205,0.337,0.315,0.308,0.166,0.098,south-southeast,4.3,No
2017/09/29,09:10,0.334,0.209,0.337,0.318,0.308,0.167,0.098,south,4.3,No
2017/09/29,09:20,0.334,0.207,0.337,0.318,0.311,0.167,0.097,south,4.1,No
2017/09/29,09:30,0.331,0.205,0.339,0.316,0.309,0.167,0.097,south,4.2,No
2017/09/29,09:40,0.328,0.206,0.336,0.315,0.306,0.167,0.099,south-southeast,5.2,No
2017/09/29,09:50,0.331,0.209,0.339,0.317,0.312,0.167,0.099,south,6.2,No
2017/09/29,10:00,0.336,0.207,0.337,0.321,0.311,0.166,0.098,south-southeast,6.1,No
2017/09/29,10:10,0.334,0.205,0.339,0.319,0.308,0.168,0.097,south-southeast,6.0,No
2017/09/29,10:20,0.333,0.208,0.338,0.318,0.308,0.169,0.098,south-southeast,6.4,No
2017/09/29,10:30,0.331,0.210,0.338,0.315,0.311,0.169,0.098,south,7.9,No
2017/09/29,10:40,0.329,0.208,0.339,0.315,0.310,0.168,0.099,south,7.6,No
2017/09/29,10:50,0.331,0.207,0.336,0.320,0.307,0.168,0.099,south-southeast,7.4,No
2017/09/29,11:00,0.330,0.206,0.335,0.322,0.311,0.169,0.098,south-southeast,7.0,No
2017/09/29,11:10,0.330,0.209,0.336,0.318,0.312,0.169,0.100,south,7.7,No
2017/09/29,11:20,0.337,0.208,0.339,0.316,0.311,0.168,0.098,south,8.3,No
2017/09/29,11:30,0.336,0.207,0.337,0.317,0.308,0.168,0.098,south,8.5,No
2017/09/29,11:40,0.334,0.208,0.336,0.321,0.311,0.168,0.098,south,9.7,No
2017/09/29,11:50,0.332,0.207,0.336,0.321,0.314,0.169,0.099,south,9.8,No
2017/09/29,12:00,0.331,0.209,0.339,0.319,0.313,0.169,0.100,south,8.7,No
2017/09/29,12:10,0.337,0.208,0.339,0.317,0.308,0.169,0.100,south,9.2,No
2017/09/29,12:20,0.338,0.207,0.336,0.317,0.310,0.169,0.099,south,9.1,No
2017/09/29,12:30,0.334,0.207,0.333,0.322,0.315,0.170,0.100,south,10.3,No
2017/09/29,12:40,0.332,0.210,0.336,0.322,0.313,0.169,0.100,south,9.8,No
2017/09/29,12:50,0.331,0.209,0.338,0.319,0.311,0.169,0.100,south,9.2,No
2017/09/29,13:00,0.337,0.209,0.340,0.319,0.309,0.169,0.100,south,10.3,No
2017/09/29,13:10,0.336,0.208,0.339,0.318,0.313,0.169,0.099,south,10.3,No
2017/09/29,13:20,0.334,0.209,0.338,0.322,0.313,0.169,0.101,south,10.5,No
2017/09/29,13:30,0.334,0.210,0.336,0.323,0.311,0.169,0.100,south,10.4,No
2017/09/29,13:40,0.339,0.209,0.337,0.319,0.311,0.169,0.099,south,10.8,No
2017/09/29,13:50,0.337,0.209,0.339,0.319,0.308,0.169,0.099,south,9.5,No
2017/09/29,14:00,0.332,0.208,0.343,0.323,0.313,0.170,0.099,south,11.4,No
2017/09/29,14:10,0.339,0.209,0.339,0.323,0.313,0.170,0.099,south,9.6,No
2017/09/29,14:20,0.335,0.210,0.338,0.319,0.311,0.169,0.098,south,10.1,No
2017/09/29,14:30,0.334,0.209,0.337,0.324,0.311,0.170,0.100,south,9.6,No
2017/09/29,14:40,0.338,0.209,0.340,0.323,0.315,0.170,0.100,south,10.1,No
2017/09/29,14:50,0.339,0.210,0.342,0.320,0.313,0.170,0.100,south,10.1,No
2017/09/29,15:00,0.334,0.211,0.338,0.324,0.310,0.168,0.100,south,10.4,No
2017/09/29,15:10,0.336,0.209,0.343,0.322,0.316,0.169,0.100,south,9.7,No
2017/09/29,15:20,0.337,0.210,0.342,0.321,0.312,0.171,0.100,south-southwest,11.0,No
2017/09/29,15:30,0.336,0.210,0.340,0.325,0.312,0.170,0.100,south-southwest,10.1,No
2017/09/29,15:40,0.338,0.209,0.343,0.321,0.315,0.169,0.100,south,9.4,No
2017/09/29,15:50,0.333,0.210,0.339,0.324,0.311,0.169,0.100,south,11.1,No
2017/09/29,16:00,0.337,0.209,0.342,0.323,0.316,0.170,0.100,south-southwest,10.5,No
2017/09/29,16:10,0.337,0.211,0.342,0.321,0.313,0.170,0.101,south-southwest,9.5,No
2017/09/29,16:20,0.334,0.209,0.340,0.323,0.311,0.169,0.101,south-southwest,7.4,No
2017/09/29,16:30,0.338,0.210,0.342,0.322,0.313,0.170,0.101,south-southwest,7.5,No
2017/09/29,16:40,0.334,0.209,0.340,0.324,0.311,0.171,0.100,south-southwest,7.4,No
2017/09/29,16:50,0.338,0.211,0.341,0.322,0.311,0.170,0.100,south,7.3,No
2017/09/29,17:00,0.335,0.209,0.340,0.321,0.315,0.171,0.100,south,6.7,No
2017/09/29,17:10,0.336,0.211,0.342,0.323,0.311,0.171,0.100,south-southwest,7.8,No
2017/09/29,17:20,0.337,0.210,0.341,0.320,0.316,0.171,0.101,south-southwest,9.1,No
2017/09/29,17:30,0.336,0.210,0.341,0.325,0.314,0.170,0.101,south-southwest,9.9,No
2017/09/29,17:40,0.339,0.210,0.341,0.322,0.313,0.170,0.101,south-southwest,10.4,No
2017/09/29,17:50,0.334,0.211,0.341,0.323,0.313,0.170,0.100,south-southwest,9.3,No
2017/09/29,18:00,0.339,0.210,0.343,0.322,0.313,0.169,0.101,south-southwest,8.8,No
2017/09/29,18:10,0.335,0.210,0.342,0.324,0.316,0.171,0.100,south-southwest,8.5,No
2017/09/29,18:20,0.339,0.210,0.342,0.321,0.312,0.170,0.101,south-southwest,7.3,No
2017/09/29,18:30,0.336,0.211,0.341,0.324,0.316,0.170,0.101,south-southwest,6.5,No
2017/09/29,18:40,0.337,0.209,0.343,0.323,0.312,0.170,0.101,southwest,5.1,No
2017/09/29,18:50,0.335,0.211,0.341,0.324,0.315,0.171,0.101,southwest,4.1,No
2017/09/29,19:00,0.340,0.209,0.343,0.323,0.313,0.170,0.102,west-southwest,4.1,No
2017/09/29,19:10,0.336,0.210,0.341,0.323,0.316,0.172,0.101,west-southwest,3.8,No
2017/09/29,19:20,0.340,0.211,0.342,0.321,0.312,0.170,0.101,west-southwest,3.1,No
2017/09/29,19:30,0.336,0.209,0.340,0.325,0.315,0.170,0.100,southwest,3.3,No
2017/09/29,19:40,0.339,0.210,0.341,0.321,0.311,0.170,0.101,southwest,3.6,No
2017/09/29,19:50,0.336,0.210,0.340,0.323,0.314,0.172,0.100,west-southwest,4.8,No
2017/09/29,20:00,0.338,0.212,0.342,0.322,0.313,0.171,0.102,west-southwest,5.6,No
2017/09/29,20:10,0.337,0.210,0.343,0.325,0.315,0.171,0.100,west-southwest,5.3,No
2017/09/29,20:20,0.340,0.211,0.342,0.322,0.313,0.170,0.101,west-southwest,5.1,No
2017/09/29,20:30,0.335,0.211,0.342,0.324,0.314,0.171,0.101,west-southwest,5.4,No
2017/09/29,20:40,0.338,0.211,0.343,0.322,0.312,0.171,0.101,west-southwest,6.0,No
2017/09/29,20:50,0.336,0.212,0.344,0.323,0.314,0.170,0.102,west-southwest,5.3,No
2017/09/29,21:00,0.338,0.210,0.341,0.323,0.314,0.170,0.102,west,4.3,No
2017/09/29,21:10,0.336,0.211,0.344,0.324,0.314,0.170,0.101,west-northwest,5.1,No
2017/09/29,21:20,0.337,0.210,0.342,0.323,0.314,0.171,0.101,west-northwest,3.6,No
2017/09/29,21:30,0.337,0.210,0.343,0.325,0.312,0.170,0.101,west-northwest,5.5,No
2017/09/29,21:40,0.338,0.210,0.341,0.323,0.315,0.171,0.101,west-northwest,5.9,No
2017/09/29,21:50,0.336,0.209,0.344,0.324,0.312,0.170,0.101,west-northwest,6.5,No
2017/09/29,22:00,0.337,0.210,0.341,0.324,0.313,0.171,0.101,west-northwest,7.4,No
2017/09/29,22:10,0.337,0.210,0.343,0.323,0.312,0.170,0.101,west-northwest,6.5,No
2017/09/29,22:20,0.337,0.210,0.342,0.324,0.314,0.170,0.101,west-northwest,6.3,No
2017/09/29,22:30,0.338,0.211,0.344,0.322,0.311,0.169,0.100,west,4.5,No
2017/09/29,22:40,0.336,0.209,0.341,0.325,0.316,0.171,0.101,west,2.3,No
2017/09/29,22:50,0.338,0.211,0.343,0.322,0.311,0.170,0.101,west-northwest,3.0,No
2017/09/29,23:00,0.337,0.210,0.341,0.324,0.314,0.171,0.101,north-northwest,4.3,No
2017/09/29,23:10,0.337,0.210,0.344,0.321,0.311,0.171,0.101,north,4.2,No
2017/09/29,23:20,0.337,0.209,0.342,0.323,0.313,0.171,0.101,northwest,2.8,No
2017/09/29,23:30,0.337,0.210,0.343,0.322,0.312,0.171,0.101,north-northwest,2.6,No
2017/09/29,23:40,0.336,0.209,0.340,0.324,0.313,0.171,0.101,northwest,3.3,No
2017/09/29,23:50,0.338,0.210,0.342,0.321,0.312,0.171,0.100,northwest,5.3,No
